FENGYUN 1C DEB, 38725

Orbit data source: Space-Track

FENGYUN 1C DEB, 38725 is space debris in SSO originally from a launch on Mon, 10 May 1999 UTC launched from the Taiyaun Space Center, China (TSC). Fengyun 1C debris stems from the Chinese weather satellite Fengyun-1C, which was intentionally destroyed by a Chinese anti-satellite missile in 2007. This event dramatically increased the amount of space debris, with thousands of trackable fragments posing hazards to satellites and human spaceflight. The Fengyun 1C debris cloud has become a focal point in discussions about space sustainability and the need for international regulations to prevent the creation of new debris.

Loading next visibility...
Identifier
38725, 1999-025ETS
Orbit
SSO
Country
Flag of CNCN / PRC
Related business
Manufacturer
Unknown
Mission
Spacecraft
Bus & Motor
Unknown
Mass
Unknown
Launch date (UTC)
1999-05-10 (27 years ago)
Launch vehicle
Unknown
Launch site
Taiyaun Space Center, China (TSC)
Object type
Payload
Rocket body
Debris
Shape & HBR
Unknown shape, 0.1 m
Radar Cross Section
Small (<0.1 m²)

Expand to show TLE details & history
Last TLE update: 9 hours ago

TLE from 9 hours ago
0 FENGYUN 1C DEB
1 38725U 99025ETS 26121.33134997  .00010353  00000-0  29402-2 0  9992
2 38725  98.8799 257.5612 0033639 198.7764 161.2188 14.45263276753676
Epoch: 2026-05-01T07:57Z
TLE epoch observation values (Epoch: 2026-05-01T07:57:08.637Z)
Latitude
0.00003°
Longitude
-80.98993°
Altitude
766.791 km
Speed
7.459 km/s
True Right ascension
17h 10m 14s
True Declination
0° 00' 00"
Sunlit
Object was in full shadow at epoch
Visualization orbit readout
Latitude
Unknown
Longitude
Unknown
Altitude
Unknown
Speed
Unknown
Apparent Right ascension
Unknown
Apparent Declination
Unknown
Sunlit
N/A
Visualization observer readout
Local Sidereal Time
00:37:31
Azimuth
Unknown
Elevation
Unknown
Doppler factor
Unknown
Orbital elements
Apogee altitude
762.234 km
Perigee altitude
714.356 km
Semi-major axis
7,116.432 km
Eccentricity
0.00336
Inclination
98.8799°
RAAN
257.5612°
Arg. of periapsis
198.7764°
True anomaly
161.34241°
Mean anomaly
161.2188°
Eccentric anomaly
161.28066°
Mean motion
3.61535 °/min
Orbital period
99.58 mins
BSTAR
0.0029402
Loading maneuver chart data...
Computing Atmospheric mass density...

Documentation

Showing up to 5 results
|